�������l�o���
Date,Time,MP-1(��Sv/h),MP-2(��Sv/h),MP-3(��Sv/h),MP-4(��Sv/h),MP-5(��Sv/h),MP-6(��Sv/h),MP-7(��Sv/h),MP-8(��Sv/h),����,����(m/s),���J
2019/01/15,00:00,0.788,1.182,0.822,1.509,1.074,0.450,0.799,0.757,�k��,3.3,��
2019/01/15,00:10,0.788,1.183,0.822,1.510,1.079,0.451,0.797,0.757,���k��,3.6,��
2019/01/15,00:20,0.790,1.182,0.821,1.510,1.076,0.450,0.799,0.754,���k��,3.1,��
2019/01/15,00:30,0.787,1.180,0.822,1.508,1.077,0.451,0.797,0.757,���k��,2.9,��
2019/01/15,00:40,0.788,1.181,0.824,1.510,1.075,0.451,0.797,0.756,���k��,2.6,��
2019/01/15,00:50,0.789,1.180,0.823,1.510,1.078,0.450,0.798,0.755,���k��,2.5,��
2019/01/15,01:00,0.788,1.179,0.824,1.510,1.077,0.450,0.798,0.755,�k��,2.2,��
2019/01/15,01:10,0.787,1.182,0.826,1.509,1.076,0.449,0.798,0.756,�k�k��,1.9,��
2019/01/15,01:20,0.788,1.180,0.828,1.509,1.077,0.450,0.797,0.756,�k�k��,1.9,��
2019/01/15,01:30,0.788,1.180,0.827,1.508,1.079,0.450,0.797,0.755,�k��,1.9,��
2019/01/15,01:40,0.789,1.181,0.827,1.505,1.077,0.449,0.799,0.757,���k��,2.3,��
2019/01/15,01:50,0.788,1.181,0.826,1.507,1.077,0.450,0.796,0.756,���k��,3.0,��
2019/01/15,02:00,0.787,1.180,0.827,1.508,1.077,0.450,0.796,0.757,���k��,2.6,��
2019/01/15,02:10,0.788,1.180,0.827,1.508,1.077,0.449,0.798,0.757,�k��,2.0,��
2019/01/15,02:20,0.789,1.181,0.827,1.509,1.074,0.450,0.799,0.757,�k��,1.4,��
2019/01/15,02:30,0.789,1.181,0.827,1.509,1.077,0.450,0.797,0.756,�k��,2.3,��
2019/01/15,02:40,0.788,1.179,0.826,1.511,1.078,0.452,0.798,0.755,�k��,1.5,��
2019/01/15,02:50,0.787,1.180,0.828,1.507,1.074,0.448,0.798,0.755,���k��,1.9,��
2019/01/15,03:00,0.786,1.184,0.827,1.510,1.076,0.449,0.797,0.757,���k��,1.2,��
2019/01/15,03:10,0.788,1.181,0.828,1.509,1.078,0.451,0.796,0.756,���k��,0.9,��
2019/01/15,03:20,0.787,1.180,0.827,1.510,1.077,0.450,0.797,0.757,��,1.1,��
2019/01/15,03:30,0.788,1.181,0.827,1.511,1.076,0.451,0.798,0.757,���쐼,1.2,��
2019/01/15,03:40,0.790,1.179,0.827,1.507,1.073,0.450,0.799,0.755,���쐼,1.4,��
2019/01/15,03:50,0.788,1.181,0.825,1.511,1.077,0.450,0.798,0.757,���쐼,1.4,��
2019/01/15,04:00,0.788,1.181,0.826,1.509,1.076,0.449,0.798,0.756,���쐼,1.4,��
2019/01/15,04:10,0.789,1.181,0.827,1.508,1.076,0.449,0.799,0.756,���쐼,0.9,��
2019/01/15,04:20,0.787,1.179,0.828,1.508,1.075,0.451,0.798,0.758,���쐼,1.4,��
2019/01/15,04:30,0.787,1.179,0.826,1.510,1.077,0.450,0.798,0.756,���쐼,1.5,��
2019/01/15,04:40,0.787,1.179,0.828,1.510,1.075,0.449,0.797,0.757,���쐼,1.4,��
2019/01/15,04:50,0.786,1.181,0.826,1.506,1.077,0.449,0.798,0.757,�쐼,1.2,��
2019/01/15,05:00,0.789,1.181,0.828,1.509,1.078,0.450,0.799,0.757,�쐼,1.1,��
2019/01/15,05:10,0.788,1.178,0.827,1.508,1.075,0.449,0.797,0.756,�쐼,1.2,��
2019/01/15,05:20,0.789,1.181,0.827,1.507,1.077,0.450,0.797,0.757,��쐼,1.7,��
2019/01/15,05:30,0.787,1.181,0.826,1.508,1.076,0.450,0.797,0.756,�쐼,1.9,��
2019/01/15,05:40,0.787,1.180,0.827,1.511,1.074,0.448,0.798,0.756,�쐼,1.5,��
2019/01/15,05:50,0.786,1.182,0.826,1.510,1.074,0.448,0.798,0.756,��쐼,1.2,��
2019/01/15,06:00,0.788,1.177,0.826,1.508,1.073,0.450,0.798,0.756,��쐼,1.2,��
2019/01/15,06:10,0.788,1.179,0.826,1.506,1.075,0.449,0.797,0.757,��쐼,1.1,��
2019/01/15,06:20,0.787,1.180,0.827,1.509,1.072,0.450,0.796,0.755,�쐼,1.1,��
2019/01/15,06:30,0.787,1.179,0.828,1.510,1.075,0.450,0.799,0.757,�쐼,1.7,��
2019/01/15,06:40,0.789,1.179,0.826,1.509,1.075,0.449,0.799,0.755,�쐼,2.0,��
2019/01/15,06:50,0.786,1.177,0.826,1.506,1.076,0.447,0.798,0.756,�쐼,2.3,��
2019/01/15,07:00,0.789,1.179,0.827,1.511,1.073,0.450,0.796,0.757,�쐼,2.0,��
2019/01/15,07:10,0.787,1.176,0.824,1.508,1.073,0.450,0.796,0.756,��쐼,2.3,��
2019/01/15,07:20,0.788,1.178,0.827,1.509,1.075,0.451,0.796,0.757,��쐼,2.6,��
2019/01/15,07:30,0.786,1.179,0.828,1.509,1.075,0.449,0.797,0.758,��쐼,2.6,��
2019/01/15,07:40,0.787,1.177,0.824,1.508,1.074,0.450,0.798,0.757,��쐼,3.4,��
2019/01/15,07:50,0.789,1.178,0.827,1.507,1.076,0.449,0.798,0.757,��,3.3,��
2019/01/15,08:00,0.789,1.177,0.825,1.506,1.075,0.448,0.798,0.756,��,3.0,��
2019/01/15,08:10,0.787,1.178,0.825,1.507,1.078,0.451,0.798,0.757,��,4.3,��
2019/01/15,08:20,0.788,1.179,0.827,1.508,1.072,0.450,0.798,0.755,��,4.8,��
2019/01/15,08:30,0.789,1.176,0.826,1.509,1.076,0.451,0.798,0.757,��,4.6,��
2019/01/15,08:40,0.790,1.178,0.827,1.508,1.076,0.449,0.800,0.756,��,4.9,��
2019/01/15,08:50,0.789,1.174,0.827,1.509,1.074,0.449,0.800,0.758,��,5.3,��
2019/01/15,09:00,0.789,1.179,0.828,1.509,1.077,0.451,0.799,0.757,��,5.2,��
2019/01/15,09:10,0.790,1.177,0.828,1.510,1.077,0.451,0.799,0.757,��,4.5,��
2019/01/15,09:20,0.791,1.176,0.830,1.510,1.077,0.451,0.799,0.760,��,4.3,��
2019/01/15,09:30,0.792,1.177,0.829,1.511,1.077,0.452,0.802,0.757,��,3.1,��
2019/01/15,09:40,0.793,1.176,0.830,1.509,1.077,0.450,0.801,0.758,��,4.6,��
2019/01/15,09:50,0.793,1.176,0.828,1.509,1.077,0.451,0.802,0.759,��쓌,5.0,��
2019/01/15,10:00,0.795,1.175,0.829,1.509,1.079,0.451,0.800,0.759,��쓌,6.4,��
2019/01/15,10:10,0.793,1.174,0.829,1.511,1.079,0.452,0.801,0.758,��쓌,6.8,��
2019/01/15,10:20,0.792,1.175,0.830,1.510,1.079,0.452,0.799,0.756,��,6.4,��
2019/01/15,10:30,0.792,1.175,0.831,1.509,1.079,0.453,0.799,0.760,��,6.7,��
2019/01/15,10:40,0.794,1.177,0.829,1.511,1.079,0.451,0.799,0.759,��,7.5,��
2019/01/15,10:50,0.792,1.177,0.829,1.511,1.078,0.453,0.799,0.758,��,7.0,��
2019/01/15,11:00,0.796,1.177,0.830,1.510,1.080,0.453,0.797,0.758,��,6.1,��
2019/01/15,11:10,0.793,1.176,0.830,1.511,1.081,0.451,0.799,0.759,��,7.8,��
2019/01/15,11:20,0.793,1.180,0.830,1.512,1.082,0.452,0.799,0.757,��,8.1,��
2019/01/15,11:30,0.793,1.180,0.829,1.512,1.079,0.453,0.800,0.757,��,8.4,��
2019/01/15,11:40,0.795,1.180,0.831,1.511,1.078,0.452,0.798,0.759,��,7.6,��
2019/01/15,11:50,0.794,1.180,0.831,1.511,1.081,0.453,0.799,0.758,��,6.2,��
2019/01/15,12:00,0.793,1.183,0.829,1.513,1.081,0.452,0.798,0.759,��,5.9,��
2019/01/15,12:10,0.794,1.183,0.831,1.513,1.081,0.453,0.801,0.758,��,6.3,��
2019/01/15,12:20,0.793,1.181,0.830,1.512,1.082,0.453,0.800,0.758,��,6.0,��
2019/01/15,12:30,0.793,1.181,0.830,1.514,1.081,0.453,0.800,0.758,��,6.4,��
2019/01/15,12:40,0.794,1.181,0.832,1.513,1.081,0.453,0.800,0.759,��,7.1,��
2019/01/15,12:50,0.796,1.178,0.832,1.510,1.084,0.453,0.800,0.759,��,6.7,��
2019/01/15,13:00,0.795,1.180,0.832,1.511,1.083,0.454,0.801,0.759,��쓌,7.4,��
2019/01/15,13:10,0.795,1.178,0.832,1.513,1.083,0.454,0.801,0.760,��,5.5,��
2019/01/15,13:20,0.793,1.177,0.830,1.512,1.083,0.453,0.799,0.759,��,8.0,��
2019/01/15,13:30,0.793,1.179,0.831,1.514,1.081,0.454,0.800,0.761,��,8.2,��
2019/01/15,13:40,0.796,1.178,0.831,1.512,1.085,0.456,0.801,0.759,��,8.8,��
2019/01/15,13:50,0.793,1.177,0.831,1.511,1.084,0.455,0.801,0.759,��,8.4,��
2019/01/15,14:00,0.793,1.179,0.830,1.515,1.083,0.455,0.801,0.759,��,8.7,��
2019/01/15,14:10,0.795,1.179,0.832,1.514,1.082,0.454,0.804,0.760,��,8.9,��
2019/01/15,14:20,0.795,1.182,0.832,1.514,1.083,0.455,0.801,0.758,��,8.8,��
2019/01/15,14:30,0.794,1.180,0.830,1.511,1.084,0.455,0.802,0.760,��,7.3,��
2019/01/15,14:40,0.796,1.181,0.832,1.513,1.082,0.454,0.802,0.758,��,6.9,��
2019/01/15,14:50,0.795,1.181,0.831,1.512,1.082,0.456,0.801,0.761,��,6.7,��
2019/01/15,15:00,0.795,1.182,0.832,1.513,1.083,0.455,0.802,0.759,��,6.8,��
2019/01/15,15:10,0.796,1.180,0.831,1.514,1.079,0.456,0.801,0.760,��쐼,6.1,��
2019/01/15,15:20,0.795,1.184,0.831,1.514,1.083,0.456,0.802,0.760,��,8.3,��
2019/01/15,15:30,0.794,1.185,0.833,1.514,1.083,0.455,0.802,0.759,��,8.3,��
2019/01/15,15:40,0.794,1.185,0.830,1.513,1.082,0.456,0.801,0.760,��,10.7,��
2019/01/15,15:50,0.794,1.182,0.833,1.512,1.084,0.454,0.802,0.758,��,10.5,��
2019/01/15,16:00,0.796,1.186,0.832,1.514,1.082,0.455,0.803,0.759,��,10.0,��
2019/01/15,16:10,0.795,1.186,0.832,1.513,1.082,0.455,0.803,0.760,��,11.3,��
2019/01/15,16:20,0.794,1.183,0.832,1.516,1.083,0.456,0.801,0.760,��,10.5,��
2019/01/15,16:30,0.794,1.183,0.833,1.513,1.083,0.455,0.802,0.758,��,10.9,��
2019/01/15,16:40,0.796,1.184,0.830,1.514,1.083,0.455,0.801,0.759,��쐼,8.3,��
2019/01/15,16:50,0.794,1.185,0.831,1.511,1.082,0.456,0.804,0.759,��,9.4,��
2019/01/15,17:00,0.796,1.187,0.831,1.513,1.082,0.456,0.803,0.758,��,8.4,��
2019/01/15,17:10,0.796,1.185,0.831,1.512,1.083,0.456,0.804,0.758,��,9.3,��
2019/01/15,17:20,0.797,1.183,0.832,1.515,1.083,0.458,0.804,0.759,��쐼,10.5,��
2019/01/15,17:30,0.796,1.187,0.833,1.514,1.083,0.457,0.803,0.758,��,10.2,��
2019/01/15,17:40,0.796,1.182,0.832,1.514,1.083,0.456,0.803,0.759,��쐼,10.7,��
2019/01/15,17:50,0.796,1.186,0.832,1.514,1.080,0.458,0.803,0.758,��,10.7,��
2019/01/15,18:00,0.794,1.184,0.833,1.511,1.083,0.456,0.805,0.760,��,10.6,��
2019/01/15,18:10,0.796,1.185,0.832,1.513,1.085,0.458,0.804,0.760,��,9.9,��
2019/01/15,18:20,0.795,1.186,0.825,1.514,1.084,0.455,0.805,0.759,��,9.3,��
2019/01/15,18:30,0.794,1.183,0.823,1.514,1.081,0.456,0.806,0.759,��,9.6,��
2019/01/15,18:40,0.795,1.183,0.824,1.514,1.085,0.457,0.806,0.759,��,11.3,��
2019/01/15,18:50,0.794,1.185,0.823,1.512,1.081,0.456,0.805,0.760,��,11.3,��
2019/01/15,19:00,0.795,1.183,0.824,1.513,1.083,0.455,0.806,0.759,��,10.3,��
2019/01/15,19:10,0.796,1.185,0.825,1.515,1.084,0.457,0.805,0.760,��,10.2,��
2019/01/15,19:20,0.796,1.185,0.825,1.514,1.083,0.456,0.805,0.759,��,10.8,��
2019/01/15,19:30,0.797,1.185,0.826,1.516,1.081,0.458,0.804,0.759,��,10.6,��
2019/01/15,19:40,0.793,1.182,0.821,1.514,1.082,0.457,0.803,0.759,��,10.2,��
2019/01/15,19:50,0.795,1.184,0.824,1.512,1.084,0.457,0.805,0.758,��,9.0,��
2019/01/15,20:00,0.796,1.184,0.824,1.516,1.083,0.457,0.805,0.760,��,8.5,��
2019/01/15,20:10,0.795,1.186,0.826,1.514,1.082,0.456,0.805,0.758,��쐼,7.9,��
2019/01/15,20:20,0.796,1.184,0.828,1.513,1.083,0.457,0.805,0.759,��쐼,7.6,��
2019/01/15,20:30,0.796,1.185,0.826,1.512,1.083,0.457,0.806,0.760,��쐼,5.6,��
2019/01/15,20:40,0.794,1.182,0.828,1.513,1.083,0.456,0.805,0.758,��쐼,5.1,��
2019/01/15,20:50,0.796,1.182,0.828,1.512,1.081,0.457,0.804,0.758,�쐼,3.6,��
2019/01/15,21:00,0.795,1.184,0.826,1.513,1.082,0.456,0.805,0.758,��쐼,3.9,��
2019/01/15,21:10,0.795,1.183,0.825,1.511,1.079,0.456,0.803,0.758,��쐼,4.6,��
2019/01/15,21:20,0.793,1.184,0.825,1.512,1.081,0.457,0.803,0.757,��쐼,5.3,��
2019/01/15,21:30,0.795,1.184,0.827,1.514,1.082,0.455,0.803,0.759,��쐼,4.9,��
2019/01/15,21:40,0.795,1.185,0.826,1.512,1.080,0.455,0.802,0.759,��쐼,3.5,��
2019/01/15,21:50,0.793,1.185,0.827,1.512,1.082,0.456,0.804,0.759,��쐼,4.6,��
2019/01/15,22:00,0.794,1.186,0.828,1.512,1.081,0.457,0.804,0.761,�쐼,4.3,��
2019/01/15,22:10,0.794,1.184,0.829,1.512,1.083,0.455,0.803,0.757,�쐼,4.4,��
2019/01/15,22:20,0.795,1.182,0.826,1.513,1.082,0.456,0.802,0.761,�쐼,4.6,��
2019/01/15,22:30,0.794,1.181,0.828,1.509,1.082,0.456,0.804,0.761,�쐼,4.4,��
2019/01/15,22:40,0.794,1.183,0.829,1.515,1.081,0.455,0.803,0.759,�쐼,5.3,��
2019/01/15,22:50,0.794,1.182,0.827,1.512,1.081,0.456,0.803,0.759,�쐼,4.6,��
2019/01/15,23:00,0.794,1.186,0.828,1.513,1.082,0.456,0.804,0.759,�쐼,4.4,��
2019/01/15,23:10,0.795,1.182,0.828,1.512,1.081,0.455,0.804,0.758,���쐼,5.8,��
2019/01/15,23:20,0.794,1.183,0.827,1.514,1.082,0.455,0.804,0.758,���쐼,4.7,��
2019/01/15,23:30,0.795,1.183,0.829,1.513,1.081,0.456,0.804,0.759,��,3.8,��
2019/01/15,23:40,0.794,1.182,0.825,1.513,1.081,0.456,0.804,0.760,��,3.6,��
2019/01/15,23:50,0.795,1.182,0.830,1.513,1.083,0.456,0.803,0.759,��,5.4,��
